owner,sensor,date,latitude,longitude,air_temperature,qcFlag 
COMPS,ioos:station:USF.COMPS:C10:1,2009-02-01T00:00:00Z,27.1690,-82.9260,12.66,1111122 
COMPS,ioos:station:USF.COMPS:C10:1,2009-02-01T00:20:00Z,27.1690,-82.9260,12.78,1111122 
COMPS,ioos:station:USF.COMPS:C10:1,2009-02-01T00:40:00Z,27.1690,-82.9260,12.87,1111122 
COMPS,ioos:station:USF.COMPS:C10:1,2009-02-01T01:00:00Z,27.1690,-82.9260,13.19,1111122 
COMPS,ioos:station:USF.COMPS:C10:1,2009-02-01T01:20:00Z,27.1690,-82.9260,13.28,1111122 
COMPS,ioos:station:USF.COMPS:C10:1,2009-02-01T01:40:00Z,27.1690,-82.9260,13.36,1111122 
COMPS,ioos:station:USF.COMPS:C10:1,2009-02-01T02:00:00Z,27.1690,-82.9260,13.49,1111122 
COMPS,ioos:station:USF.COMPS:C10:1,2009-02-01T02:20:00Z,27.1690,-82.9260,13.63,1111122 
COMPS,ioos:station:USF.COMPS:C10:1,2009-02-01T02:40:00Z,27.1690,-82.9260,13.69,1111122 
COMPS,ioos:station:USF.COMPS:C10:1,2009-02-01T03:00:00Z,27.1690,-82.9260,13.74,1111122 
COMPS,ioos:station:USF.COMPS:C10:1,2009-02-01T03:20:00Z,27.1690,-82.9260,13.82,1111122 
COMPS,ioos:station:USF.COMPS:C10:1,2009-02-01T03:40:00Z,27.1690,-82.9260,13.85,1111122 
COMPS,ioos:station:USF.COMPS:C10:1,2009-02-01T04:00:00Z,27.1690,-82.9260,13.84,1111122 
COMPS,ioos:station:USF.COMPS:C10:1,2009-02-01T04:20:00Z,27.1690,-82.9260,13.88,1111122 
COMPS,ioos:station:USF.COMPS:C10:1,2009-02-01T04:40:00Z,27.1690,-82.9260,13.91,1111122 
COMPS,ioos:station:USF.COMPS:C10:1,2009-02-01T05:00:00Z,27.1690,-82.9260,13.83,1111122 
COMPS,ioos:station:USF.COMPS:C10:1,2009-02-01T05:20:00Z,27.1690,-82.9260,13.8,1111122 
COMPS,ioos:station:USF.COMPS:C10:1,2009-02-01T05:40:00Z,27.1690,-82.9260,13.65,1111122 
COMPS,ioos:station:USF.COMPS:C10:1,2009-02-01T06:00:00Z,27.1690,-82.9260,13.5,1111122 
COMPS,ioos:station:USF.COMPS:C10:1,2009-02-01T06:20:00Z,27.1690,-82.9260,13.15,1111122 
COMPS,ioos:station:USF.COMPS:C10:1,2009-02-01T06:40:00Z,27.1690,-82.9260,13.16,1111122 
COMPS,ioos:station:USF.COMPS:C10:1,2009-02-01T07:00:00Z,27.1690,-82.9260,12.86,1111122 
COMPS,ioos:station:USF.COMPS:C10:1,2009-02-01T07:20:00Z,27.1690,-82.9260,12.5,1111122 
COMPS,ioos:station:USF.COMPS:C10:1,2009-02-01T07:40:00Z,27.1690,-82.9260,12.49,1111122 
COMPS,ioos:station:USF.COMPS:C10:1,2009-02-01T08:00:00Z,27.1690,-82.9260,12.55,1111122 
COMPS,ioos:station:USF.COMPS:C10:1,2009-02-01T08:20:00Z,27.1690,-82.9260,12.65,1111122 
COMPS,ioos:station:USF.COMPS:C10:1,2009-02-01T08:40:00Z,27.1690,-82.9260,12.59,1111122 
COMPS,ioos:station:USF.COMPS:C10:1,2009-02-01T09:00:00Z,27.1690,-82.9260,12.64,1111122 
COMPS,ioos:station:USF.COMPS:C10:1,2009-02-01T09:20:00Z,27.1690,-82.9260,12.72,1111122 
COMPS,ioos:station:USF.COMPS:C10:1,2009-02-01T09:40:00Z,27.1690,-82.9260,12.72,1111122 
COMPS,ioos:station:USF.COMPS:C10:1,2009-02-01T10:00:00Z,27.1690,-82.9260,12.83,1111122 
COMPS,ioos:station:USF.COMPS:C10:1,2009-02-01T10:20:00Z,27.1690,-82.9260,12.81,1111122 
COMPS,ioos:station:USF.COMPS:C10:1,2009-02-01T10:40:00Z,27.1690,-82.9260,12.84,1111122 
COMPS,ioos:station:USF.COMPS:C10:1,2009-02-01T11:00:00Z,27.1690,-82.9260,12.73,1111122 
COMPS,ioos:station:USF.COMPS:C10:1,2009-02-01T11:20:00Z,27.1690,-82.9260,12.82,1111122 
COMPS,ioos:station:USF.COMPS:C10:1,2009-02-01T11:40:00Z,27.1690,-82.9260,13.0,1111122 
COMPS,ioos:station:USF.COMPS:C10:1,2009-02-01T12:00:00Z,27.1690,-82.9260,13.23,1111122 
COMPS,ioos:station:USF.COMPS:C10:1,2009-02-01T12:20:00Z,27.1690,-82.9260,13.19,1111122 
COMPS,ioos:station:USF.COMPS:C10:1,2009-02-01T12:40:00Z,27.1690,-82.9260,13.47,1111122 
COMPS,ioos:station:USF.COMPS:C10:1,2009-02-01T13:00:00Z,27.1690,-82.9260,13.55,1111122 
COMPS,ioos:station:USF.COMPS:C10:1,2009-02-01T13:20:00Z,27.1690,-82.9260,13.54,1111122 
COMPS,ioos:station:USF.COMPS:C10:1,2009-02-01T13:40:00Z,27.1690,-82.9260,13.45,1111122 
COMPS,ioos:station:USF.COMPS:C10:1,2009-02-01T14:00:00Z,27.1690,-82.9260,13.41,1111122 
COMPS,ioos:station:USF.COMPS:C10:1,2009-02-01T14:20:00Z,27.1690,-82.9260,13.55,1111122 
COMPS,ioos:station:USF.COMPS:C10:1,2009-02-01T14:40:00Z,27.1690,-82.9260,13.53,1111122 
COMPS,ioos:station:USF.COMPS:C10:1,2009-02-01T15:00:00Z,27.1690,-82.9260,13.73,1111122 
COMPS,ioos:station:USF.COMPS:C10:1,2009-02-01T15:20:00Z,27.1690,-82.9260,13.71,1111122 
COMPS,ioos:station:USF.COMPS:C10:1,2009-02-01T15:40:00Z,27.1690,-82.9260,13.71,1111122 
COMPS,ioos:station:USF.COMPS:C10:1,2009-02-01T16:00:00Z,27.1690,-82.9260,13.8,1111122 
COMPS,ioos:station:USF.COMPS:C10:1,2009-02-01T16:20:00Z,27.1690,-82.9260,14.01,1111122 
COMPS,ioos:station:USF.COMPS:C10:1,2009-02-01T16:40:00Z,27.1690,-82.9260,14.29,1111122 
COMPS,ioos:station:USF.COMPS:C10:1,2009-02-01T17:00:00Z,27.1690,-82.9260,14.4,1111122 
COMPS,ioos:station:USF.COMPS:C10:1,2009-02-01T17:20:00Z,27.1690,-82.9260,14.64,1111122 
COMPS,ioos:station:USF.COMPS:C10:1,2009-02-01T17:40:00Z,27.1690,-82.9260,14.86,1111122 
COMPS,ioos:station:USF.COMPS:C10:1,2009-02-01T18:00:00Z,27.1690,-82.9260,15.3,1111122 
COMPS,ioos:station:USF.COMPS:C10:1,2009-02-01T18:20:00Z,27.1690,-82.9260,15.68,1111122 
COMPS,ioos:station:USF.COMPS:C10:1,2009-02-01T18:40:00Z,27.1690,-82.9260,15.83,1111122 
COMPS,ioos:station:USF.COMPS:C10:1,2009-02-01T19:00:00Z,27.1690,-82.9260,15.99,1111122 
COMPS,ioos:station:USF.COMPS:C10:1,2009-02-01T19:20:00Z,27.1690,-82.9260,16.13,1111122 
COMPS,ioos:station:USF.COMPS:C10:1,2009-02-01T19:40:00Z,27.1690,-82.9260,16.38,1111122 
COMPS,ioos:station:USF.COMPS:C10:1,2009-02-01T20:00:00Z,27.1690,-82.9260,16.47,1111122 
COMPS,ioos:station:USF.COMPS:C10:1,2009-02-01T20:20:00Z,27.1690,-82.9260,16.53,1111122 
COMPS,ioos:station:USF.COMPS:C10:1,2009-02-01T20:40:00Z,27.1690,-82.9260,16.55,1111122 
COMPS,ioos:station:USF.COMPS:C10:1,2009-02-01T21:00:00Z,27.1690,-82.9260,16.56,1111122 
COMPS,ioos:station:USF.COMPS:C10:1,2009-02-01T21:20:00Z,27.1690,-82.9260,16.6,1111122 
COMPS,ioos:station:USF.COMPS:C10:1,2009-02-01T21:40:00Z,27.1690,-82.9260,16.36,1111122 
COMPS,ioos:station:USF.COMPS:C10:1,2009-02-01T22:00:00Z,27.1690,-82.9260,16.47,1111122 
COMPS,ioos:station:USF.COMPS:C10:1,2009-02-01T22:20:00Z,27.1690,-82.9260,16.26,1111122 
COMPS,ioos:station:USF.COMPS:C10:1,2009-02-01T22:40:00Z,27.1690,-82.9260,16.33,1111122 
COMPS,ioos:station:USF.COMPS:C10:1,2009-02-01T23:00:00Z,27.1690,-82.9260,16.47,1111122 
COMPS,ioos:station:USF.COMPS:C10:1,2009-02-01T23:20:00Z,27.1690,-82.9260,16.24,1111122 
COMPS,ioos:station:USF.COMPS:C10:1,2009-02-01T23:40:00Z,27.1690,-82.9260,16.4,1111122 
COMPS,ioos:station:USF.COMPS:C10:1,2009-02-02T00:00:00Z,27.1690,-82.9260,16.25,1111122 
COMPS,ioos:station:USF.COMPS:C10:1,2009-02-02T00:20:00Z,27.1690,-82.9260,16.14,1111122 
COMPS,ioos:station:USF.COMPS:C10:1,2009-02-02T00:40:00Z,27.1690,-82.9260,16.22,1111122 
COMPS,ioos:station:USF.COMPS:C10:1,2009-02-02T01:00:00Z,27.1690,-82.9260,16.33,1111122 
COMPS,ioos:station:USF.COMPS:C10:1,2009-02-02T01:20:00Z,27.1690,-82.9260,16.48,1111122 
COMPS,ioos:station:USF.COMPS:C10:1,2009-02-02T01:40:00Z,27.1690,-82.9260,16.54,1111122 
COMPS,ioos:station:USF.COMPS:C10:1,2009-02-02T02:00:00Z,27.1690,-82.9260,16.58,1111122 
COMPS,ioos:station:USF.COMPS:C10:1,2009-02-02T02:20:00Z,27.1690,-82.9260,16.5,1111122 
COMPS,ioos:station:USF.COMPS:C10:1,2009-02-02T02:40:00Z,27.1690,-82.9260,16.5,1111122 
COMPS,ioos:station:USF.COMPS:C10:1,2009-02-02T03:00:00Z,27.1690,-82.9260,16.5,1111122 
COMPS,ioos:station:USF.COMPS:C10:1,2009-02-02T03:20:00Z,27.1690,-82.9260,16.44,1111122 
COMPS,ioos:station:USF.COMPS:C10:1,2009-02-02T03:40:00Z,27.1690,-82.9260,16.48,1111122 
COMPS,ioos:station:USF.COMPS:C10:1,2009-02-02T04:00:00Z,27.1690,-82.9260,16.46,1111122 
COMPS,ioos:station:USF.COMPS:C10:1,2009-02-02T04:20:00Z,27.1690,-82.9260,16.51,1111122 
COMPS,ioos:station:USF.COMPS:C10:1,2009-02-02T04:40:00Z,27.1690,-82.9260,16.55,1111122 
COMPS,ioos:station:USF.COMPS:C10:1,2009-02-02T05:00:00Z,27.1690,-82.9260,16.47,1111122 
COMPS,ioos:station:USF.COMPS:C10:1,2009-02-02T05:20:00Z,27.1690,-82.9260,16.47,1111122 
COMPS,ioos:station:USF.COMPS:C10:1,2009-02-02T05:40:00Z,27.1690,-82.9260,16.41,1111122 
COMPS,ioos:station:USF.COMPS:C10:1,2009-02-02T06:00:00Z,27.1690,-82.9260,16.23,1111122 
COMPS,ioos:station:USF.COMPS:C10:1,2009-02-02T06:20:00Z,27.1690,-82.9260,16.3,1111122 
COMPS,ioos:station:USF.COMPS:C10:1,2009-02-02T06:40:00Z,27.1690,-82.9260,16.18,1111122 
COMPS,ioos:station:USF.COMPS:C10:1,2009-02-02T07:00:00Z,27.1690,-82.9260,16.0,1111122 
COMPS,ioos:station:USF.COMPS:C10:1,2009-02-02T07:20:00Z,27.1690,-82.9260,15.93,1111122 
COMPS,ioos:station:USF.COMPS:C10:1,2009-02-02T07:40:00Z,27.1690,-82.9260,16.04,1111122 
COMPS,ioos:station:USF.COMPS:C10:1,2009-02-02T08:00:00Z,27.1690,-82.9260,16.11,1111122 
COMPS,ioos:station:USF.COMPS:C10:1,2009-02-02T08:20:00Z,27.1690,-82.9260,16.3,1111122 
COMPS,ioos:station:USF.COMPS:C10:1,2009-02-02T08:40:00Z,27.1690,-82.9260,16.33,1111122 
COMPS,ioos:station:USF.COMPS:C10:1,2009-02-02T09:00:00Z,27.1690,-82.9260,16.3,1111122 
COMPS,ioos:station:USF.COMPS:C10:1,2009-02-02T09:20:00Z,27.1690,-82.9260,16.33,1111122 
COMPS,ioos:station:USF.COMPS:C10:1,2009-02-02T09:40:00Z,27.1690,-82.9260,16.33,1111122 
COMPS,ioos:station:USF.COMPS:C10:1,2009-02-02T10:00:00Z,27.1690,-82.9260,16.43,1111122 
COMPS,ioos:station:USF.COMPS:C10:1,2009-02-02T10:20:00Z,27.1690,-82.9260,16.37,1111122 
COMPS,ioos:station:USF.COMPS:C10:1,2009-02-02T10:40:00Z,27.1690,-82.9260,16.15,1111122 
COMPS,ioos:station:USF.COMPS:C10:1,2009-02-02T11:00:00Z,27.1690,-82.9260,15.93,1111122 
COMPS,ioos:station:USF.COMPS:C10:1,2009-02-02T11:20:00Z,27.1690,-82.9260,15.87,1111122 
COMPS,ioos:station:USF.COMPS:C10:1,2009-02-02T11:40:00Z,27.1690,-82.9260,15.85,1111122 
COMPS,ioos:station:USF.COMPS:C10:1,2009-02-02T12:00:00Z,27.1690,-82.9260,15.96,1111122 
COMPS,ioos:station:USF.COMPS:C10:1,2009-02-02T12:20:00Z,27.1690,-82.9260,16.01,1111122 
COMPS,ioos:station:USF.COMPS:C10:1,2009-02-02T12:40:00Z,27.1690,-82.9260,16.13,1111122 
COMPS,ioos:station:USF.COMPS:C10:1,2009-02-02T13:00:00Z,27.1690,-82.9260,15.84,1111122 
COMPS,ioos:station:USF.COMPS:C10:1,2009-02-02T13:20:00Z,27.1690,-82.9260,15.85,1111122 
COMPS,ioos:station:USF.COMPS:C10:1,2009-02-02T13:40:00Z,27.1690,-82.9260,15.84,1111122 
COMPS,ioos:station:USF.COMPS:C10:1,2009-02-02T14:00:00Z,27.1690,-82.9260,15.93,1111122 
COMPS,ioos:station:USF.COMPS:C10:1,2009-02-02T14:20:00Z,27.1690,-82.9260,15.94,1111122 
COMPS,ioos:station:USF.COMPS:C10:1,2009-02-02T14:40:00Z,27.1690,-82.9260,16.06,1111122 
COMPS,ioos:station:USF.COMPS:C10:1,2009-02-02T15:00:00Z,27.1690,-82.9260,16.17,1111122 
COMPS,ioos:station:USF.COMPS:C10:1,2009-02-02T15:20:00Z,27.1690,-82.9260,16.25,1111122 
COMPS,ioos:station:USF.COMPS:C10:1,2009-02-02T15:40:00Z,27.1690,-82.9260,16.66,1111122 
COMPS,ioos:station:USF.COMPS:C10:1,2009-02-02T16:00:00Z,27.1690,-82.9260,16.76,1111122 
COMPS,ioos:station:USF.COMPS:C10:1,2009-02-02T16:20:00Z,27.1690,-82.9260,16.94,1111122 
COMPS,ioos:station:USF.COMPS:C10:1,2009-02-02T16:40:00Z,27.1690,-82.9260,16.95,1111122 
COMPS,ioos:station:USF.COMPS:C10:1,2009-02-02T17:00:00Z,27.1690,-82.9260,16.8,1111122 
COMPS,ioos:station:USF.COMPS:C10:1,2009-02-02T17:20:00Z,27.1690,-82.9260,16.68,1111122 
COMPS,ioos:station:USF.COMPS:C10:1,2009-02-02T17:40:00Z,27.1690,-82.9260,16.75,1111122 
COMPS,ioos:station:USF.COMPS:C10:1,2009-02-02T18:00:00Z,27.1690,-82.9260,16.83,1111122 
COMPS,ioos:station:USF.COMPS:C10:1,2009-02-02T18:20:00Z,27.1690,-82.9260,17.03,1111122 
COMPS,ioos:station:USF.COMPS:C10:1,2009-02-02T18:40:00Z,27.1690,-82.9260,17.14,1111122 
COMPS,ioos:station:USF.COMPS:C10:1,2009-02-02T19:00:00Z,27.1690,-82.9260,17.04,1111122 
COMPS,ioos:station:USF.COMPS:C10:1,2009-02-02T19:20:00Z,27.1690,-82.9260,17.16,1111122 
COMPS,ioos:station:USF.COMPS:C10:1,2009-02-02T19:40:00Z,27.1690,-82.9260,17.39,1111122 
COMPS,ioos:station:USF.COMPS:C10:1,2009-02-02T20:00:00Z,27.1690,-82.9260,17.72,1111122 
COMPS,ioos:station:USF.COMPS:C10:1,2009-02-02T20:20:00Z,27.1690,-82.9260,18.12,1111122 
COMPS,ioos:station:USF.COMPS:C10:1,2009-02-02T20:40:00Z,27.1690,-82.9260,18.55,1111122 
COMPS,ioos:station:USF.COMPS:C10:1,2009-02-02T21:00:00Z,27.1690,-82.9260,18.87,1111122 
COMPS,ioos:station:USF.COMPS:C10:1,2009-02-02T21:20:00Z,27.1690,-82.9260,18.62,1111122 
COMPS,ioos:station:USF.COMPS:C10:1,2009-02-02T21:40:00Z,27.1690,-82.9260,18.88,1111122 
COMPS,ioos:station:USF.COMPS:C10:1,2009-02-02T22:00:00Z,27.1690,-82.9260,18.47,1111122 
COMPS,ioos:station:USF.COMPS:C10:1,2009-02-02T22:20:00Z,27.1690,-82.9260,18.47,1111122 
COMPS,ioos:station:USF.COMPS:C10:1,2009-02-02T22:40:00Z,27.1690,-82.9260,18.4,1111122 
COMPS,ioos:station:USF.COMPS:C10:1,2009-02-02T23:00:00Z,27.1690,-82.9260,18.31,1111122 
COMPS,ioos:station:USF.COMPS:C10:1,2009-02-02T23:20:00Z,27.1690,-82.9260,18.31,1111122 
COMPS,ioos:station:USF.COMPS:C10:1,2009-02-02T23:40:00Z,27.1690,-82.9260,18.31,1111122 
COMPS,ioos:station:USF.COMPS:C10:1,2009-02-03T00:00:00Z,27.1690,-82.9260,18.25,1111122 
COMPS,ioos:station:USF.COMPS:C10:1,2009-02-03T00:20:00Z,27.1690,-82.9260,18.09,1111122 
COMPS,ioos:station:USF.COMPS:C10:1,2009-02-03T00:40:00Z,27.1690,-82.9260,18.01,1111122 
COMPS,ioos:station:USF.COMPS:C10:1,2009-02-03T01:00:00Z,27.1690,-82.9260,18.12,1111122 
COMPS,ioos:station:USF.COMPS:C10:1,2009-02-03T01:20:00Z,27.1690,-82.9260,18.24,1111122 
COMPS,ioos:station:USF.COMPS:C10:1,2009-02-03T01:40:00Z,27.1690,-82.9260,18.28,1111122 
COMPS,ioos:station:USF.COMPS:C10:1,2009-02-03T02:00:00Z,27.1690,-82.9260,18.17,1111122 
COMPS,ioos:station:USF.COMPS:C10:1,2009-02-03T02:20:00Z,27.1690,-82.9260,17.92,1111122 
COMPS,ioos:station:USF.COMPS:C10:1,2009-02-03T02:40:00Z,27.1690,-82.9260,17.69,1111122 
COMPS,ioos:station:USF.COMPS:C10:1,2009-02-03T03:00:00Z,27.1690,-82.9260,17.57,1111122 
COMPS,ioos:station:USF.COMPS:C10:1,2009-02-03T03:20:00Z,27.1690,-82.9260,17.46,1111122 
COMPS,ioos:station:USF.COMPS:C10:1,2009-02-03T03:40:00Z,27.1690,-82.9260,17.26,1111122 
COMPS,ioos:station:USF.COMPS:C10:1,2009-02-03T04:00:00Z,27.1690,-82.9260,17.13,1111122 
COMPS,ioos:station:USF.COMPS:C10:1,2009-02-03T04:20:00Z,27.1690,-82.9260,17.03,1111122 
COMPS,ioos:station:USF.COMPS:C10:1,2009-02-03T04:40:00Z,27.1690,-82.9260,16.98,1111122 
COMPS,ioos:station:USF.COMPS:C10:1,2009-02-03T05:00:00Z,27.1690,-82.9260,16.97,1111122 
COMPS,ioos:station:USF.COMPS:C10:1,2009-02-03T05:20:00Z,27.1690,-82.9260,16.97,1111122 
COMPS,ioos:station:USF.COMPS:C10:1,2009-02-03T05:40:00Z,27.1690,-82.9260,16.92,1111122 
COMPS,ioos:station:USF.COMPS:C10:1,2009-02-03T06:00:00Z,27.1690,-82.9260,16.86,1111122 
COMPS,ioos:station:USF.COMPS:C10:1,2009-02-03T06:20:00Z,27.1690,-82.9260,16.81,1111122 
COMPS,ioos:station:USF.COMPS:C10:1,2009-02-03T06:40:00Z,27.1690,-82.9260,16.69,1111122 
COMPS,ioos:station:USF.COMPS:C10:1,2009-02-03T07:00:00Z,27.1690,-82.9260,16.66,1111122 
COMPS,ioos:station:USF.COMPS:C10:1,2009-02-03T07:20:00Z,27.1690,-82.9260,16.63,1111122 
COMPS,ioos:station:USF.COMPS:C10:1,2009-02-03T07:40:00Z,27.1690,-82.9260,16.62,1111122 
COMPS,ioos:station:USF.COMPS:C10:1,2009-02-03T08:00:00Z,27.1690,-82.9260,16.65,1111122 
COMPS,ioos:station:USF.COMPS:C10:1,2009-02-03T08:20:00Z,27.1690,-82.9260,16.64,1111122 
COMPS,ioos:station:USF.COMPS:C10:1,2009-02-03T08:40:00Z,27.1690,-82.9260,16.35,1111122 
COMPS,ioos:station:USF.COMPS:C10:1,2009-02-03T09:00:00Z,27.1690,-82.9260,16.51,1111122 
COMPS,ioos:station:USF.COMPS:C10:1,2009-02-03T09:20:00Z,27.1690,-82.9260,15.7,1111122 
COMPS,ioos:station:USF.COMPS:C10:1,2009-02-03T09:40:00Z,27.1690,-82.9260,15.57,1111122 
COMPS,ioos:station:USF.COMPS:C10:1,2009-02-03T10:00:00Z,27.1690,-82.9260,15.44,1111122 
COMPS,ioos:station:USF.COMPS:C10:1,2009-02-03T10:20:00Z,27.1690,-82.9260,15.22,1111122 
COMPS,ioos:station:USF.COMPS:C10:1,2009-02-03T10:40:00Z,27.1690,-82.9260,15.33,1111122 
COMPS,ioos:station:USF.COMPS:C10:1,2009-02-03T11:00:00Z,27.1690,-82.9260,15.29,1111122 
COMPS,ioos:station:USF.COMPS:C10:1,2009-02-03T11:20:00Z,27.1690,-82.9260,15.2,1111122 
COMPS,ioos:station:USF.COMPS:C10:1,2009-02-03T11:40:00Z,27.1690,-82.9260,15.22,1111122 
COMPS,ioos:station:USF.COMPS:C10:1,2009-02-03T12:00:00Z,27.1690,-82.9260,14.94,1111122 
COMPS,ioos:station:USF.COMPS:C10:1,2009-02-03T12:20:00Z,27.1690,-82.9260,14.55,1111122 
COMPS,ioos:station:USF.COMPS:C10:1,2009-02-03T12:40:00Z,27.1690,-82.9260,14.16,1111122 
COMPS,ioos:station:USF.COMPS:C10:1,2009-02-03T13:00:00Z,27.1690,-82.9260,14.01,1111122 
COMPS,ioos:station:USF.COMPS:C10:1,2009-02-03T13:20:00Z,27.1690,-82.9260,13.99,1111122 
COMPS,ioos:station:USF.COMPS:C10:1,2009-02-03T13:40:00Z,27.1690,-82.9260,13.93,1111122 
COMPS,ioos:station:USF.COMPS:C10:1,2009-02-03T14:00:00Z,27.1690,-82.9260,13.63,1111122 
COMPS,ioos:station:USF.COMPS:C10:1,2009-02-03T14:20:00Z,27.1690,-82.9260,12.84,1111122 
COMPS,ioos:station:USF.COMPS:C10:1,2009-02-03T14:40:00Z,27.1690,-82.9260,12.31,1111122 
COMPS,ioos:station:USF.COMPS:C10:1,2009-02-03T15:00:00Z,27.1690,-82.9260,11.96,1111122 
COMPS,ioos:station:USF.COMPS:C10:1,2009-02-03T15:20:00Z,27.1690,-82.9260,11.72,1111122 
COMPS,ioos:station:USF.COMPS:C10:1,2009-02-03T15:40:00Z,27.1690,-82.9260,11.58,1111122 
COMPS,ioos:station:USF.COMPS:C10:1,2009-02-03T16:00:00Z,27.1690,-82.9260,11.4,1111122 
COMPS,ioos:station:USF.COMPS:C10:1,2009-02-03T16:20:00Z,27.1690,-82.9260,11.64,1111122 
COMPS,ioos:station:USF.COMPS:C10:1,2009-02-03T16:40:00Z,27.1690,-82.9260,11.42,1111122 
COMPS,ioos:station:USF.COMPS:C10:1,2009-02-03T17:00:00Z,27.1690,-82.9260,11.3,1111122 
COMPS,ioos:station:USF.COMPS:C10:1,2009-02-03T17:20:00Z,27.1690,-82.9260,10.73,1111122 
COMPS,ioos:station:USF.COMPS:C10:1,2009-02-03T17:40:00Z,27.1690,-82.9260,11.26,1111122 
COMPS,ioos:station:USF.COMPS:C10:1,2009-02-03T18:00:00Z,27.1690,-82.9260,11.42,1111122 
COMPS,ioos:station:USF.COMPS:C10:1,2009-02-03T18:20:00Z,27.1690,-82.9260,11.61,1111122 
COMPS,ioos:station:USF.COMPS:C10:1,2009-02-03T18:40:00Z,27.1690,-82.9260,11.77,1111122 
COMPS,ioos:station:USF.COMPS:C10:1,2009-02-03T19:00:00Z,27.1690,-82.9260,11.75,1111122 
COMPS,ioos:station:USF.COMPS:C10:1,2009-02-03T19:20:00Z,27.1690,-82.9260,11.95,1111122 
COMPS,ioos:station:USF.COMPS:C10:1,2009-02-03T19:40:00Z,27.1690,-82.9260,12.07,1111122 
COMPS,ioos:station:USF.COMPS:C10:1,2009-02-03T20:00:00Z,27.1690,-82.9260,12.17,1111122 
COMPS,ioos:station:USF.COMPS:C10:1,2009-02-03T20:20:00Z,27.1690,-82.9260,12.33,1111122 
COMPS,ioos:station:USF.COMPS:C10:1,2009-02-03T20:40:00Z,27.1690,-82.9260,12.47,1111122 
COMPS,ioos:station:USF.COMPS:C10:1,2009-02-03T21:00:00Z,27.1690,-82.9260,12.4,1111122 
COMPS,ioos:station:USF.COMPS:C10:1,2009-02-03T21:20:00Z,27.1690,-82.9260,12.62,1111122 
COMPS,ioos:station:USF.COMPS:C10:1,2009-02-03T21:40:00Z,27.1690,-82.9260,12.73,1111122 
COMPS,ioos:station:USF.COMPS:C10:1,2009-02-03T22:00:00Z,27.1690,-82.9260,12.78,1111122 
COMPS,ioos:station:USF.COMPS:C10:1,2009-02-03T22:20:00Z,27.1690,-82.9260,12.79,1111122 
COMPS,ioos:station:USF.COMPS:C10:1,2009-02-03T22:40:00Z,27.1690,-82.9260,12.87,1111122 
COMPS,ioos:station:USF.COMPS:C10:1,2009-02-03T23:00:00Z,27.1690,-82.9260,13.0,1111122 
COMPS,ioos:station:USF.COMPS:C10:1,2009-02-03T23:20:00Z,27.1690,-82.9260,12.81,1111122 
COMPS,ioos:station:USF.COMPS:C10:1,2009-02-03T23:40:00Z,27.1690,-82.9260,12.95,1111122 
COMPS,ioos:station:USF.COMPS:C10:1,2009-02-04T00:00:00Z,27.1690,-82.9260,13.13,1111122 
COMPS,ioos:station:USF.COMPS:C10:1,2009-02-04T00:20:00Z,27.1690,-82.9260,13.06,1111122 
COMPS,ioos:station:USF.COMPS:C10:1,2009-02-04T00:40:00Z,27.1690,-82.9260,13.14,1111122 
COMPS,ioos:station:USF.COMPS:C10:1,2009-02-04T01:00:00Z,27.1690,-82.9260,13.28,1111122 
COMPS,ioos:station:USF.COMPS:C10:1,2009-02-04T01:20:00Z,27.1690,-82.9260,13.28,1111122 
COMPS,ioos:station:USF.COMPS:C10:1,2009-02-04T01:40:00Z,27.1690,-82.9260,13.29,1111122 
COMPS,ioos:station:USF.COMPS:C10:1,2009-02-04T02:00:00Z,27.1690,-82.9260,13.51,1111122 
COMPS,ioos:station:USF.COMPS:C10:1,2009-02-04T02:20:00Z,27.1690,-82.9260,13.55,1111122 
COMPS,ioos:station:USF.COMPS:C10:1,2009-02-04T02:40:00Z,27.1690,-82.9260,13.7,1111122 
COMPS,ioos:station:USF.COMPS:C10:1,2009-02-04T03:00:00Z,27.1690,-82.9260,13.85,1111122 
COMPS,ioos:station:USF.COMPS:C10:1,2009-02-04T03:20:00Z,27.1690,-82.9260,13.96,1111122 
COMPS,ioos:station:USF.COMPS:C10:1,2009-02-04T03:40:00Z,27.1690,-82.9260,14.01,1111122 
COMPS,ioos:station:USF.COMPS:C10:1,2009-02-04T04:00:00Z,27.1690,-82.9260,13.95,1111122 
COMPS,ioos:station:USF.COMPS:C10:1,2009-02-04T04:20:00Z,27.1690,-82.9260,14.36,1111122 
COMPS,ioos:station:USF.COMPS:C10:1,2009-02-04T04:40:00Z,27.1690,-82.9260,14.47,1111122 
COMPS,ioos:station:USF.COMPS:C10:1,2009-02-04T05:00:00Z,27.1690,-82.9260,14.75,1111122 
COMPS,ioos:station:USF.COMPS:C10:1,2009-02-04T05:20:00Z,27.1690,-82.9260,14.99,1111122 
COMPS,ioos:station:USF.COMPS:C10:1,2009-02-04T05:40:00Z,27.1690,-82.9260,15.08,1111122 
COMPS,ioos:station:USF.COMPS:C10:1,2009-02-04T06:00:00Z,27.1690,-82.9260,15.21,1111122 
COMPS,ioos:station:USF.COMPS:C10:1,2009-02-04T06:20:00Z,27.1690,-82.9260,15.35,1111122 
COMPS,ioos:station:USF.COMPS:C10:1,2009-02-04T06:40:00Z,27.1690,-82.9260,15.56,1111122 
COMPS,ioos:station:USF.COMPS:C10:1,2009-02-04T07:00:00Z,27.1690,-82.9260,15.57,1111122 
COMPS,ioos:station:USF.COMPS:C10:1,2009-02-04T07:20:00Z,27.1690,-82.9260,15.72,1111122 
COMPS,ioos:station:USF.COMPS:C10:1,2009-02-04T07:40:00Z,27.1690,-82.9260,15.87,1111122 
COMPS,ioos:station:USF.COMPS:C10:1,2009-02-04T08:00:00Z,27.1690,-82.9260,16.03,1111122 
COMPS,ioos:station:USF.COMPS:C10:1,2009-02-04T08:20:00Z,27.1690,-82.9260,16.21,1111122 
COMPS,ioos:station:USF.COMPS:C10:1,2009-02-04T08:40:00Z,27.1690,-82.9260,16.25,1111122 
COMPS,ioos:station:USF.COMPS:C10:1,2009-02-04T09:00:00Z,27.1690,-82.9260,16.21,1111122 
COMPS,ioos:station:USF.COMPS:C10:1,2009-02-04T09:20:00Z,27.1690,-82.9260,16.25,1111122 
COMPS,ioos:station:USF.COMPS:C10:1,2009-02-04T09:40:00Z,27.1690,-82.9260,16.34,1111122 
COMPS,ioos:station:USF.COMPS:C10:1,2009-02-04T10:00:00Z,27.1690,-82.9260,16.35,1111122 
COMPS,ioos:station:USF.COMPS:C10:1,2009-02-04T10:20:00Z,27.1690,-82.9260,16.41,1111122 
COMPS,ioos:station:USF.COMPS:C10:1,2009-02-04T10:40:00Z,27.1690,-82.9260,16.38,1111122 
COMPS,ioos:station:USF.COMPS:C10:1,2009-02-04T11:00:00Z,27.1690,-82.9260,15.3,1111122 
COMPS,ioos:station:USF.COMPS:C10:1,2009-02-04T11:20:00Z,27.1690,-82.9260,15.04,1111122 
COMPS,ioos:station:USF.COMPS:C10:1,2009-02-04T11:40:00Z,27.1690,-82.9260,14.93,1111122 
COMPS,ioos:station:USF.COMPS:C10:1,2009-02-04T12:00:00Z,27.1690,-82.9260,14.8,1111122 
COMPS,ioos:station:USF.COMPS:C10:1,2009-02-04T12:20:00Z,27.1690,-82.9260,14.71,1111122 
COMPS,ioos:station:USF.COMPS:C10:1,2009-02-04T12:40:00Z,27.1690,-82.9260,14.52,1111122 
COMPS,ioos:station:USF.COMPS:C10:1,2009-02-04T13:00:00Z,27.1690,-82.9260,14.36,1111122 
COMPS,ioos:station:USF.COMPS:C10:1,2009-02-04T13:20:00Z,27.1690,-82.9260,14.11,1111122 
COMPS,ioos:station:USF.COMPS:C10:1,2009-02-04T13:40:00Z,27.1690,-82.9260,14.12,1111122 
COMPS,ioos:station:USF.COMPS:C10:1,2009-02-04T14:00:00Z,27.1690,-82.9260,13.89,1111122 
COMPS,ioos:station:USF.COMPS:C10:1,2009-02-04T14:20:00Z,27.1690,-82.9260,13.78,1111122 
COMPS,ioos:station:USF.COMPS:C10:1,2009-02-04T14:40:00Z,27.1690,-82.9260,13.66,1111122 
COMPS,ioos:station:USF.COMPS:C10:1,2009-02-04T15:00:00Z,27.1690,-82.9260,13.6,1111122 
COMPS,ioos:station:USF.COMPS:C10:1,2009-02-04T15:20:00Z,27.1690,-82.9260,13.5,1111122 
COMPS,ioos:station:USF.COMPS:C10:1,2009-02-04T15:40:00Z,27.1690,-82.9260,13.13,1111122 
COMPS,ioos:station:USF.COMPS:C10:1,2009-02-04T16:00:00Z,27.1690,-82.9260,13.08,1111122 
COMPS,ioos:station:USF.COMPS:C10:1,2009-02-04T16:20:00Z,27.1690,-82.9260,12.83,1111122 
COMPS,ioos:station:USF.COMPS:C10:1,2009-02-04T16:40:00Z,27.1690,-82.9260,12.54,1111122 
COMPS,ioos:station:USF.COMPS:C10:1,2009-02-04T17:00:00Z,27.1690,-82.9260,12.49,1111122 
COMPS,ioos:station:USF.COMPS:C10:1,2009-02-04T17:20:00Z,27.1690,-82.9260,12.27,1111122 
COMPS,ioos:station:USF.COMPS:C10:1,2009-02-04T17:40:00Z,27.1690,-82.9260,11.64,1111122 
COMPS,ioos:station:USF.COMPS:C10:1,2009-02-04T18:00:00Z,27.1690,-82.9260,11.32,1111122 
COMPS,ioos:station:USF.COMPS:C10:1,2009-02-04T18:20:00Z,27.1690,-82.9260,10.97,1111122 